Waarnemingen

Advertentie
Mijn weer
Tarbes/Ossun, Frankrijk (7621): temperatuur & dauwpunt: 15.01.2017 01:00:00 - 21.01.2017 01:00:00 (CET)Tarbes/Ossun, Frankrijk (7621): temperatuur 5cm: 15.01.2017 01:00:00 - 21.01.2017 01:00:00 (CET)Tarbes/Ossun, Frankrijk (7621): temperatuur -20cm & temperatuur -100cm: 15.01.2017 01:00:00 - 21.01.2017 01:00:00 (CET)Tarbes/Ossun, Frankrijk (7621): windsnelheid & windstoten: 15.01.2017 01:00:00 - 21.01.2017 01:00:00 (CET)Tarbes/Ossun, Frankrijk (7621): windrichting: 15.01.2017 01:00:00 - 21.01.2017 01:00:00 (CET)Tarbes/Ossun, Frankrijk (7621): luchtdruk: 15.01.2017 01:00:00 - 21.01.2017 01:00:00 (CET)Tarbes/Ossun, Frankrijk (7621): zicht: 15.01.2017 01:00:00 - 21.01.2017 01:00:00 (CET)Tarbes/Ossun, Frankrijk (7621): Zonneschijnduur: 15.01.2017 01:00:00 - 21.01.2017 01:00:00 (CET)Tarbes/Ossun, Frankrijk (7621): neerslag: 15.01.2017 01:00:00 - 21.01.2017 01:00:00 (CET)
Datum & Tijd tt [°C] td [°C] tt 5cm [°C] tt -20cm [°C] tt -100cm [°C] ff [km/u] ff [kn] fx [km/u] fx [kn] dd ppp [hPa] vv [km] sd [min] rr [mm]
21.01.2017 01:00:00 -2,8 -5,0 - - - 8 4 16 9 ZZO 1024,5 19 - -
21.01.2017 00:00:00 -2,7 -4,0 -6,7 2,8 7,6 11 6 17 9 ZZO 1024,7 13 0 0,0
20.01.2017 23:00:00 -4,3 -5,7 -7,5 2,8 7,6 9 5 10 6 Z 1025,3 11 0 0,0
20.01.2017 22:00:00 -3,2 -4,5 -7,5 2,8 7,6 7 4 11 6 ZZO 1025,3 4,8 0 0,0
20.01.2017 21:00:00 -3,8 -4,9 -6,7 2,8 7,6 8 5 10 5 Z 1025,5 7 0 0,0
20.01.2017 20:00:00 -3,5 -5,4 -6,1 2,8 7,6 8 4 12 6 Z 1025,3 8 0 0,0
20.01.2017 19:00:00 -1,7 -3,4 -5,0 2,7 7,6 9 5 12 6 ZZW 1024,7 11 0 0,0
20.01.2017 18:00:00 1,9 -1,4 -3,6 2,7 7,6 5 3 12 7 NNW 1024,0 10 32 0,0
20.01.2017 17:00:00 4,4 -0,8 4,3 2,6 7,6 10 5 14 8 N 1023,0 14 60 0,0
20.01.2017 16:00:00 5,2 -2,4 9,8 2,6 7,6 8 4 13 7 N 1022,9 20 52 0,0
20.01.2017 15:00:00 5,0 -3,3 11,8 2,6 7,6 4 2 9 5 NNO 1023,2 24 45 0,0
20.01.2017 14:00:00 4,0 -4,2 12,5 2,6 7,6 5 3 15 8 NNO 1023,8 16 60 0,0
20.01.2017 13:00:00 2,9 -3,0 12,2 2,6 7,6 6 4 14 8 NNO 1024,7 17 60 0,0
20.01.2017 12:00:00 1,3 -2,5 1,4 2,7 7,7 5 3 9 5 N 1025,5 13 35 0,0
20.01.2017 11:00:00 0,3 -3,1 -0,5 2,7 7,7 0 0 9 5 N 1026,0 17 60 0,0
20.01.2017 10:00:00 -3,2 -4,0 -7,1 2,8 7,7 3 2 9 5 WZW 1026,3 13 26 0,0
20.01.2017 09:00:00 -6,2 -7,4 -9,5 2,8 7,7 2 1 12 6 O 1026,3 14 10 0,0
20.01.2017 08:00:00 -7,2 -9,0 -10,1 2,8 7,7 3 2 8 4 Z 1026,5 8 0 0,0
20.01.2017 07:00:00 -6,8 -8,3 -10,0 2,9 7,7 3 2 8 4 Z 1026,4 8 0 0,0
20.01.2017 06:00:00 -6,6 -7,4 -10,2 3,0 7,7 4 2 11 6 ZO 1026,4 9 0 0,0
20.01.2017 05:00:00 -7,2 -8,6 -10,2 3,0 7,7 5 3 9 5 Z 1026,9 7 0 0,0
20.01.2017 04:00:00 -7,1 -8,5 -10,1 3,0 7,7 6 3 9 5 Z 1027,3 7 0 0,0
20.01.2017 03:00:00 -7,0 -8,2 -10,4 3,1 7,7 5 3 8 5 Z 1027,7 6 0 0,0
20.01.2017 02:00:00 -6,2 -7,3 -10,2 3,2 7,7 2 1 5 3 ZZO 1027,3 6 0 0,0
20.01.2017 01:00:00 -6,5 -7,6 -9,9 3,3 7,7 6 3 8 5 Z 1027,6 6 0 0,0
20.01.2017 00:00:00 -6,3 -7,4 -10,0 3,3 7,7 4 2 8 4 ZZW 1028,0 6 0 0,0
19.01.2017 23:00:00 -5,5 -6,5 -10,2 3,4 7,8 0 0 6 3 N 1028,3 4,5 0 0,0
19.01.2017 22:00:00 -5,0 -6,2 -9,5 3,4 7,8 5 3 8 4 ZZO 1028,4 7 0 0,0
19.01.2017 21:00:00 -4,1 -5,5 -9,5 3,4 7,8 4 2 6 3 N 1028,2 6 0 0,0
19.01.2017 20:00:00 -3,5 -5,4 -8,7 3,4 7,8 4 2 10 5 N 1028,0 8 0 0,0
19.01.2017 19:00:00 -2,0 -5,2 -7,0 3,4 7,8 4 2 11 6 NO 1027,7 12 0 0,0
19.01.2017 18:00:00 -1,8 -5,1 -4,6 3,3 7,8 8 4 14 8 NNO 1027,4 18 21 0,0
19.01.2017 17:00:00 0,6 -5,4 0,7 3,2 7,8 5 3 16 9 NO 1026,8 21 60 0,0
19.01.2017 16:00:00 0,8 -5,2 6,3 3,1 7,8 5 3 16 9 NO 1026,7 20 57 0,0
19.01.2017 15:00:00 0,9 -4,9 9,1 3,0 7,8 7 4 16 9 N 1026,7 20 60 0,0
19.01.2017 14:00:00 0,2 -5,0 5,4 3,0 7,8 8 4 19 10 NNO 1027,1 20 51 0,0
19.01.2017 13:00:00 -0,7 -5,7 - - - 5 3 13 7 W 1027,7 29 - -
19.01.2017 12:00:00 -1,3 -5,9 1,1 3,1 7,8 5 3 11 6 ZO 1028,6 20 0 0,0
19.01.2017 11:00:00 -1,9 -6,1 -1,8 3,1 7,8 4 2 9 5 Z 1028,6 20 0 0,0
19.01.2017 10:00:00 -2,7 -6,2 -3,1 3,1 7,8 6 3 16 9 ZZO 1028,2 17 0 0,0
19.01.2017 09:00:00 -3,2 -6,5 -3,6 3,1 7,8 9 5 15 8 ZZO 1027,8 16 0 0,0
19.01.2017 08:00:00 -3,5 -6,8 -3,7 3,2 7,8 8 5 14 7 ZZO 1027,7 16 0 0,0
19.01.2017 07:00:00 -3,6 -7,0 -3,8 3,2 7,8 10 5 14 8 ZZO 1027,6 17 0 0,0
19.01.2017 06:00:00 -3,7 -7,3 -3,8 3,3 7,8 9 5 19 10 ZZW 1027,8 17 0 0,0
19.01.2017 05:00:00 -3,6 -7,6 -3,9 3,3 7,8 9 5 15 8 W 1027,9 17 0 0,0
19.01.2017 04:00:00 -3,6 -7,7 -3,8 3,3 7,9 8 4 14 8 W 1028,2 19 0 0,0
19.01.2017 03:00:00 -3,5 -7,5 -3,8 3,4 7,8 5 3 14 8 ZW 1028,4 19 0 0,0
19.01.2017 02:00:00 -3,4 -7,9 -4,2 3,4 7,9 7 4 13 7 W 1028,4 19 0 0,0
19.01.2017 01:00:00 -3,7 -6,6 -5,3 3,4 7,9 3 1 7 4 NNW 1028,4 16 0 0,0
19.01.2017 00:00:00 -3,7 -7,3 -5,4 3,5 7,9 4 2 7 4 NW 1028,3 15 0 0,0
18.01.2017 23:00:00 -3,6 -7,6 -4,5 3,5 7,9 2 1 6 3 W 1028,3 21 0 0,0
18.01.2017 22:00:00 -3,3 -6,8 -4,1 3,5 7,9 3 2 10 5 WNW 1028,4 20 0 0,0
18.01.2017 21:00:00 -3,0 -7,2 -3,7 3,5 7,9 4 2 6 4 NNW 1028,3 20 0 0,0
18.01.2017 20:00:00 -2,9 -7,2 -3,3 3,5 7,9 6 3 9 5 NNW 1028,3 21 0 0,0
18.01.2017 19:00:00 -2,9 -8,0 -3,5 3,5 7,9 5 3 7 4 NNO 1028,3 27 0 0,0
18.01.2017 18:00:00 -2,8 -8,3 -3,0 3,6 7,9 5 3 10 6 NNO 1027,7 27 0 0,0
18.01.2017 17:00:00 -2,5 -8,6 -1,2 3,6 7,9 5 3 11 6 N 1027,4 28 0 0,0
18.01.2017 16:00:00 -2,4 -8,3 -0,9 3,5 7,9 6 3 10 5 WNW 1027,2 30 0 0,0
18.01.2017 15:00:00 -2,2 -8,5 0,3 3,6 7,9 3 2 14 7 ZZO 1027,2 33 0 0,0
18.01.2017 14:00:00 -2,0 -7,7 0,5 3,6 7,9 11 6 24 13 ZW 1026,8 29 16 0,0
18.01.2017 13:00:00 -2,9 -7,6 -0,5 3,6 7,9 8 5 17 9 W 1027,3 19 0 0,0
18.01.2017 12:00:00 -3,1 -7,1 -1,1 3,7 7,9 11 6 16 9 W 1027,7 19 0 0,0
18.01.2017 11:00:00 -3,6 -7,2 -3,0 3,7 7,9 3 1 8 5 WNW 1028,2 18 0 0,0
18.01.2017 10:00:00 -4,1 -7,2 -4,2 3,8 7,9 4 2 9 5 NNO 1028,3 20 0 0,0
18.01.2017 09:00:00 -4,5 -7,3 -4,5 3,8 7,9 6 3 8 5 N 1027,7 20 0 0,0
18.01.2017 08:00:00 -4,5 -7,3 -4,4 3,9 7,9 6 4 13 7 N 1027,2 20 0 0,0
18.01.2017 07:00:00 -4,1 -7,0 -4,1 4,0 7,9 6 4 12 6 N 1027,0 24 0 0,0
18.01.2017 06:00:00 -4,0 -6,9 -4,1 4,0 7,9 8 4 11 6 N 1026,9 26 0 0,0
18.01.2017 05:00:00 -3,8 -6,9 -4,3 4,1 7,9 8 4 11 6 N 1027,0 29 0 0,0
18.01.2017 04:00:00 -3,7 -6,5 -5,0 4,1 7,9 9 5 11 6 NNW 1027,3 31 0 0,0
18.01.2017 03:00:00 -4,1 -6,9 -8,0 4,2 7,9 6 3 9 5 W 1027,6 32 0 0,0
18.01.2017 02:00:00 -4,0 -7,4 -5,8 4,3 7,9 8 4 15 8 NNW 1027,5 37 0 0,0
18.01.2017 01:00:00 -3,3 -6,9 -5,0 4,4 7,9 11 6 14 8 NW 1027,8 44 0 0,0
18.01.2017 00:00:00 -2,9 -6,9 -5,2 4,4 7,9 9 5 18 10 WNW 1028,1 44 0 0,0
17.01.2017 23:00:00 -2,0 -7,1 -5,1 4,5 7,9 9 5 14 8 WZW 1028,2 50 0 0,0
17.01.2017 22:00:00 -2,1 -6,8 -4,8 4,6 7,9 4 2 13 7 NW 1028,2 41 0 0,0
17.01.2017 21:00:00 -0,8 -6,8 -1,8 4,6 7,9 9 5 21 11 NNW 1028,0 43 0 0,0
17.01.2017 20:00:00 -0,2 -4,8 -1,1 4,6 7,9 9 5 18 10 W 1028,0 31 0 0,0
17.01.2017 19:00:00 0,1 -5,1 -0,8 4,6 7,9 11 6 19 10 W 1027,7 32 0 0,0
17.01.2017 18:00:00 0,3 -5,5 -0,5 4,6 7,9 10 5 15 8 W 1027,5 38 0 0,0
17.01.2017 17:00:00 0,5 -6,2 0,3 4,6 7,9 11 6 24 13 WZW 1027,4 52 6 0,0
17.01.2017 16:00:00 0,5 -5,7 0,9 4,5 7,9 13 7 31 17 NW 1027,1 46 20 0,0
17.01.2017 15:00:00 1,4 -6,2 4,1 4,5 7,9 17 9 32 17 NW 1026,7 53 54 0,0
17.01.2017 14:00:00 1,7 -4,2 7,5 4,6 7,9 18 10 30 16 W 1026,6 43 60 0,0
17.01.2017 13:00:00 1,2 -3,9 6,5 4,6 7,9 18 10 28 15 W 1027,5 20 60 0,0
17.01.2017 12:00:00 0,2 -3,9 3,8 4,8 7,9 16 9 22 12 WZW 1028,3 36 49 0,0
17.01.2017 11:00:00 -1,1 -4,5 -1,0 4,9 7,9 6 4 19 10 WNW 1029,0 20 60 0,0
17.01.2017 10:00:00 -2,1 -3,4 -8,6 5,0 7,9 8 4 12 6 NW 1028,8 50 60 0,0
17.01.2017 09:00:00 -4,2 -4,7 -10,4 5,1 7,9 4 2 9 5 WNW 1028,7 12 8 0,0
17.01.2017 08:00:00 -4,7 -5,2 -9,7 5,2 7,9 8 4 9 5 ZW 1028,2 8 0 0,0
17.01.2017 07:00:00 -3,4 -4,1 -9,7 5,4 7,9 0 0 6 4 N 1027,7 1,4 0 0,0
17.01.2017 06:00:00 -2,5 -3,5 -8,8 5,5 7,9 4 2 7 4 ONO 1027,1 10 0 0,0
17.01.2017 05:00:00 -1,5 -2,8 -6,8 5,6 7,9 5 3 11 6 NO 1027,0 31 0 0,0
17.01.2017 04:00:00 -1,2 -2,8 -5,2 5,7 7,9 5 3 10 5 NO 1027,0 10 0 0,0
17.01.2017 03:00:00 -0,5 -2,4 -1,9 5,7 7,9 7 4 15 8 NNO 1027,0 42 0 0,0
17.01.2017 02:00:00 1,3 -1,4 0,7 5,8 7,9 13 7 23 12 NNO 1026,4 53 0 0,0
17.01.2017 01:00:00 2,3 0,5 1,8 5,8 7,9 10 5 23 12 N 1025,8 51 0 0,0
17.01.2017 00:00:00 3,0 1,2 2,1 5,8 7,9 4 2 15 8 WNW 1025,5 56 0 0,0
16.01.2017 23:00:00 3,4 1,6 - - - 9 5 15 8 NNW 1025,4 55 - 0,0
16.01.2017 22:00:00 4,0 2,5 3,4 5,9 7,9 7 4 18 10 N 1024,9 49 0 0,0
16.01.2017 21:00:00 4,3 3,1 3,1 5,9 8,0 4 2 9 5 NW 1025,3 19 0 0,0
16.01.2017 20:00:00 4,6 2,9 3,2 5,9 8,0 2 1 22 12 NW 1024,9 28 0 0,0
16.01.2017 19:00:00 5,3 3,6 4,1 5,8 8,0 13 7 26 14 NNW 1024,6 42 0 0,0
16.01.2017 18:00:00 6,7 5,2 6,0 5,8 7,9 19 10 37 20 NNW 1023,9 24 0 0,0
16.01.2017 17:00:00 7,1 5,9 6,4 5,7 8,0 20 11 39 21 WNW 1023,8 38 0 1,2
16.01.2017 16:00:00 7,0 5,6 6,4 5,7 8,0 21 11 35 19 WNW 1023,7 5 0 1,2
16.01.2017 15:00:00 6,8 4,9 6,4 5,6 8,0 19 10 34 18 W 1023,7 13 0 1,0
16.01.2017 14:00:00 7,5 5,8 6,5 5,5 8,0 18 10 36 20 WNW 1023,9 16 0 0,2
16.01.2017 13:00:00 7,5 5,3 7,0 5,5 8,0 20 11 34 18 W 1024,4 37 0 0,0
16.01.2017 12:00:00 7,4 6,0 6,7 5,4 8,0 24 13 36 20 W 1024,9 37 0 0,2
16.01.2017 11:00:00 7,0 5,9 6,6 5,3 8,0 18 10 32 17 WNW 1024,9 10 0 0,2
16.01.2017 10:00:00 7,1 6,0 6,5 5,3 8,0 17 9 30 16 WNW 1024,6 48 0 0,0
16.01.2017 09:00:00 7,0 6,1 - - - 15 8 28 15 NW 1024,1 60 - 0,2
16.01.2017 08:00:00 6,9 6,3 6,4 5,2 8,0 17 9 24 13 NW 1023,4 4,0 0 0,6
16.01.2017 07:00:00 6,9 6,0 6,0 5,1 8,0 16 8 31 17 NW 1023,3 55 0 0,3
16.01.2017 06:00:00 6,4 5,8 6,0 5,1 8,0 10 6 21 11 WNW 1022,9 12 0 1,2
16.01.2017 05:00:00 6,6 6,0 5,7 5,0 8,0 15 8 29 15 WNW 1023,3 3,0 0 0,6
16.01.2017 04:00:00 6,2 5,5 5,2 5,1 8,0 21 11 35 19 WNW 1023,6 10 0 1,0
16.01.2017 03:00:00 5,8 4,9 4,6 5,1 8,0 21 12 37 20 W 1023,7 16 0 1,2
16.01.2017 02:00:00 5,0 4,3 3,0 5,1 8,0 17 9 29 16 WZW 1024,5 6 0 1,6
16.01.2017 01:00:00 3,2 2,6 2,1 5,2 8,0 10 6 23 12 ZZW 1025,6 13 0 1,4
16.01.2017 00:00:00 2,5 1,6 2,1 5,2 8,0 17 9 26 14 ZZW 1026,4 14 0 1,4
15.01.2017 23:00:00 2,5 1,5 1,8 5,3 8,0 18 10 30 16 WZW 1027,2 14 0 1,8
15.01.2017 22:00:00 2,2 1,3 1,8 5,4 8,0 15 8 29 16 WZW 1027,7 9 0 1,4
15.01.2017 21:00:00 2,5 1,5 2,0 5,4 8,0 17 9 35 19 WZW 1028,1 16 0 1,5
15.01.2017 20:00:00 2,6 1,4 2,1 5,4 8,0 22 12 36 20 WZW 1028,4 12 0 1,4
15.01.2017 19:00:00 3,2 1,9 2,5 5,4 8,0 21 12 37 20 WZW 1028,2 12 0 1,0
15.01.2017 18:00:00 3,1 1,8 2,6 5,4 8,0 25 14 40 22 WZW 1028,1 18 0 0,4
15.01.2017 17:00:00 3,7 2,1 3,2 5,4 8,1 22 12 34 19 W 1028,3 14 0 0,4
15.01.2017 16:00:00 4,1 2,0 3,8 5,3 8,0 16 9 29 16 WZW 1028,3 20 0 0,4
15.01.2017 15:00:00 3,9 2,1 3,9 5,3 8,0 15 8 29 16 WZW 1028,4 16 0 0,6
15.01.2017 14:00:00 4,3 2,3 4,3 5,2 8,0 14 8 25 13 W 1028,9 15 0 0,4
15.01.2017 13:00:00 4,8 2,5 5,0 5,2 8,0 14 7 22 12 W 1029,2 45 0 0,0
15.01.2017 12:00:00 4,9 3,2 5,2 5,2 8,0 14 8 21 11 W 1029,6 19 0 0,0
15.01.2017 11:00:00 4,6 3,3 4,3 5,1 8,0 10 6 22 12 W 1029,5 26 0 0,0
15.01.2017 10:00:00 4,0 3,1 3,6 5,1 8,0 10 5 17 9 WZW 1029,1 20 0 0,0
15.01.2017 09:00:00 3,8 2,9 3,3 5,2 8,0 9 5 21 11 WNW 1029,0 17 0 0,2
15.01.2017 08:00:00 3,8 2,5 3,1 5,1 8,0 11 6 24 13 WNW 1028,4 7 0 0,8
15.01.2017 07:00:00 4,6 1,8 3,4 5,2 8,0 16 8 27 15 W 1027,5 60 0 0,0
15.01.2017 06:00:00 4,5 1,5 2,9 5,2 8,0 16 9 27 14 WZW 1027,4 60 0 0,0
15.01.2017 05:00:00 3,9 1,4 2,6 5,2 8,0 14 8 25 14 WZW 1027,7 60 0 0,0
15.01.2017 04:00:00 3,4 1,4 2,1 5,2 8,0 16 8 29 15 WZW 1028,1 60 0 0,0
15.01.2017 03:00:00 3,3 1,2 2,1 5,3 8,0 19 10 33 18 WZW 1028,0 60 0 0,0
15.01.2017 02:00:00 4,0 0,7 2,9 5,3 8,0 19 10 32 17 WZW 1027,6 19 0 0,0
15.01.2017 01:00:00 3,6 -0,2 2,5 5,4 8,0 20 11 32 18 WZW 1027,6 60 0 0,0

tt = temperatuur
td = dauwpunt
tt 5cm = temperatuur 5cm
tt -20cm = temperatuur -20cm
tt -100cm = temperatuur -100cm
ff = windsnelheid
fx = windstoten
dd = windrichting
ppp = luchtdruk
vv = zicht
sd = Zonneschijnduur
rr = neerslag

Weerstations in de omgeving